This demonstration page uses our WeatherBlox Daily Observations layout. Learn more.

Left ArrowRight Arrow

Hourly Observations for April 21, 2017

Temp ( °F °C ) Dew Point ( °F °C ) Humidity (%) Winds ( mph kmh ) Pressure ( in mb ) Visibility ( mi km ) Precip ( " mm )
12:15 am 00:15 Clear 63 17 63 17 100 100 N N/A 29.94 1014 10 16 N/A
12:35 am 00:35 Clear 64 18 64 18 100 100 SE 3 6 29.94 1014 10 16 N/A
12:55 am 00:55 Partly Cloudy 64 18 64 18 100 100 SE 3 6 29.94 1014 10 16 N/A
1:15 am 01:15 Mostly Cloudy 64 18 64 18 100 100 SSE 6 9 29.91 1013 10 16 N/A
1:35 am 01:35 Cloudy 64 18 64 18 100 100 SSE 5 7 29.91 1013 10 16 N/A
1:55 am 01:55 Cloudy 64 18 64 18 100 100 SE 3 6 29.91 1013 10 16 N/A
2:15 am 02:15 Cloudy 64 18 64 18 100 100 S 3 6 29.91 1013 10 16 N/A
2:35 am 02:35 Cloudy with Mist and Fog 63 17 63 17 100 100 NNW 7 11 29.91 1013 4 6 N/A
2:55 am 02:55 Cloudy with Fog 63 17 63 17 100 100 N N/A 29.91 1013 1 1 N/A
3:15 am 03:15 Cloudy with Mist and Fog 63 17 63 17 100 100 SE 3 6 29.88 1012 2 3 N/A
3:35 am 03:35 Cloudy with Mist and Fog 63 17 63 17 100 100 SE 3 6 29.88 1012 4 6 N/A
3:55 am 03:55 Mostly Cloudy 63 17 63 17 100 100 N N/A 29.88 1012 7 11 N/A
4:15 am 04:15 Mostly Cloudy with Mist and Fog 63 17 63 17 100 100 N N/A 29.88 1012 4 6 N/A
4:35 am 04:35 Cloudy with Mist and Fog 63 17 63 17 100 100 N N/A 29.88 1012 1 1 N/A
4:55 am 04:55 Cloudy with Mist and Fog 63 17 63 17 100 100 N N/A 29.88 1012 1 1 N/A
5:15 am 05:15 Cloudy with Fog 63 17 63 17 100 100 N N/A 29.88 1012 1 1 N/A
5:35 am 05:35 Cloudy with Mist and Fog 63 17 63 17 100 100 N N/A 29.88 1012 1 1 N/A
5:55 am 05:55 Cloudy with Mist and Fog 63 17 63 17 100 100 NE 3 6 29.88 1012 1 2 N/A
6:15 am 06:15 Cloudy with Mist and Fog 63 17 63 17 100 100 N N/A 29.88 1012 2 3 N/A
6:35 am 06:35 Cloudy with Mist and Fog 63 17 63 17 100 100 N N/A 29.91 1013 4 6 N/A
6:55 am 06:55 Cloudy with Mist and Fog 63 17 63 17 100 100 N N/A 29.91 1013 3 5 N/A
7:15 am 07:15 Cloudy with Mist and Fog 63 17 63 17 100 100 N N/A 29.91 1013 3 5 N/A
7:35 am 07:35 Cloudy with Mist and Fog 63 17 63 17 100 100 N N/A 29.91 1013 4 6 N/A
7:55 am 07:55 Mostly Cloudy with Mist and Fog 63 17 63 17 100 100 N N/A 29.91 1013 4 6 N/A
8:15 am 08:15 Mostly Cloudy with Mist and Fog 63 17 63 17 100 100 N N/A 29.91 1013 4 6 N/A
8:35 am 08:35 Mostly Cloudy with Mist and Fog 64 18 64 18 100 100 N N/A 29.91 1013 4 6 N/A
8:55 am 08:55 Mostly Cloudy with Mist and Fog 64 18 64 18 100 100 SSW 3 6 29.91 1013 5 8 N/A
9:15 am 09:15 Cloudy with Mist and Fog 66 19 66 19 100 100 N N/A 29.91 1013 5 8 N/A
9:35 am 09:35 Mostly Cloudy 68 20 66 19 94 94 N N/A 29.91 1013 7 11 N/A
9:55 am 09:55 Partly Cloudy 70 21 68 20 94 94 N N/A 29.91 1013 10 16 N/A
10:15 am 10:15 Sunny 70 21 68 20 94 94 N N/A 29.88 1012 10 16 N/A
10:35 am 10:35 Sunny 72 22 68 20 88 88 N N/A 29.88 1012 10 16 N/A
10:55 am 10:55 Partly Cloudy 73 23 68 20 83 83 N N/A 29.88 1012 10 16 N/A
11:15 am 11:15 Partly Cloudy 73 23 68 20 83 83 N N/A 29.88 1012 10 16 N/A
11:35 am 11:35 Partly Cloudy 77 25 68 20 74 74 N N/A 29.88 1012 10 16 N/A
11:55 am 11:55 Mostly Cloudy 77 25 68 20 74 74 N N/A 29.88 1012 10 16 N/A
12:15 pm 12:15 Mostly Cloudy 79 26 66 19 65 65 N N/A 29.88 1012 10 16 N/A
12:35 pm 12:35 Mostly Cloudy 81 27 64 18 58 58 WNW 8 13 29.88 1012 10 16 N/A
12:55 pm 12:55 Cloudy 79 26 64 18 61 61 WNW 9 15 29.88 1012 10 16 N/A
1:15 pm 13:15 Cloudy 79 26 63 17 58 58 NNW 8 13 29.85 1011 10 16 N/A
1:35 pm 13:35 Mostly Cloudy 81 27 63 17 54 54 NW 5 7 29.85 1011 10 16 N/A
1:55 pm 13:55 Mostly Cloudy 81 27 64 18 58 58 W 3 6 29.85 1011 10 16 N/A
2:15 pm 14:15 Mostly Cloudy 79 26 64 18 61 61 N N/A 29.85 1011 10 16 N/A
2:35 pm 14:35 Partly Cloudy 82 28 63 17 51 51 N N/A 29.83 1010 10 16 N/A
2:55 pm 14:55 Sunny 84 29 63 17 48 48 WSW 5 7 29.80 1009 10 16 N/A
3:15 pm 15:15 Partly Cloudy 82 28 64 18 55 55 W 9 15 29.80 1009 10 16 N/A
3:35 pm 15:35 Partly Cloudy 86 30 63 17 46 46 WSW 9 15 29.77 1008 10 16 N/A
3:55 pm 15:55 Mostly Cloudy 82 28 61 16 48 48 NW 16 26 29.80 1009 10 16 N/A
4:15 pm 16:15 Cloudy 72 22 64 18 78 78 NE 10 17 29.83 1010 10 16 N/A
4:35 pm 16:35 Mostly Cloudy 75 24 63 17 65 65 NE 3 6 29.80 1009 10 16 N/A
4:55 pm 16:55 Partly Cloudy 79 26 63 17 58 58 NNE 5 7 29.80 1009 10 16 N/A
5:15 pm 17:15 Partly Cloudy 79 26 64 18 61 61 N N/A 29.80 1009 10 16 N/A
5:35 pm 17:35 Sunny with Nearby Thunderstorms 79 26 64 18 61 61 N N/A 29.80 1009 10 16 N/A
5:55 pm 17:55 Sunny 81 27 64 18 58 58 N N/A 29.80 1009 10 16 N/A
6:15 pm 18:15 Sunny 81 27 64 18 58 58 NW 5 7 29.80 1009 10 16 N/A
6:35 pm 18:35 Sunny 81 27 64 18 58 58 NNW 3 6 29.80 1009 10 16 N/A
6:55 pm 18:55 Sunny 81 27 63 17 54 54 N 6 9 29.80 1009 10 16 N/A
7:15 pm 19:15 Sunny 81 27 63 17 54 54 N 5 7 29.80 1009 10 16 N/A
7:35 pm 19:35 Sunny 81 27 64 18 58 58 N N/A 29.83 1010 10 16 N/A
7:55 pm 19:55 Mostly Cloudy 79 26 64 18 61 61 N N/A 29.83 1010 7 11 N/A
8:15 pm 20:15 Cloudy 77 25 66 19 69 69 ENE 3 6 29.83 1010 10 16 N/A
8:35 pm 20:35 Partly Cloudy 73 23 68 20 83 83 ESE 5 7 29.83 1010 10 16 N/A
8:55 pm 20:55 Mostly Cloudy 73 23 68 20 83 83 N N/A 29.85 1011 10 16 N/A
9:15 pm 21:15 Cloudy 73 23 68 20 83 83 N N/A 29.85 1011 10 16 N/A
9:35 pm 21:35 Mostly Cloudy 72 22 68 20 88 88 SSW 3 6 29.85 1011 10 16 N/A
9:55 pm 21:55 Mostly Cloudy 72 22 66 19 83 83 NNE 8 13 29.88 1012 10 16 N/A
10:15 pm 22:15 Cloudy 72 22 64 18 78 78 N 8 13 29.88 1012 10 16 N/A
10:35 pm 22:35 Mostly Cloudy 70 21 64 18 83 83 N 12 19 29.88 1012 10 16 N/A
10:55 pm 22:55 Partly Cloudy 70 21 64 18 83 83 NNE 9 15 29.88 1012 10 16 N/A
11:15 pm 23:15 Clear 68 20 64 18 88 88 NE 8 13 29.88 1012 10 16 N/A
11:35 pm 23:35 Partly Cloudy 68 20 64 18 88 88 NE 6 9 29.88 1012 10 16 N/A
11:55 pm 23:55 Cloudy 68 20 64 18 88 88 NNE 5 7 29.91 1013 10 16 N/A

Powered by AerisWeather